This is the latest recevied weather packets stored in our database for station/object CT7BNL-13. If no packets are shown the sender has not sent any weather packets the latest 10 day(s).
| Time | Temp. | Humidity | Pressure | Rain* | Wind** | Luminosity | Snow |
|---|---|---|---|---|---|---|---|
| 1788511080 | 20° C | 67% | 1026.4 hPa | 0 mm | - | 15 W/m² | - |
| 1788509281 | 20° C | 67% | 1026.4 hPa | 0 mm | - | 15 W/m² | - |
| 1788508380 | 20° C | 67% | 1026.4 hPa | 0 mm | - | 15 W/m² | - |
| 1788507481 | 20° C | 67% | 1026.4 hPa | 0 mm | - | 15 W/m² | - |
| 1788506581 | 20° C | 67% | 1026.4 hPa | 0 mm | - | 15 W/m² | - |
| 1788504781 | 20° C | 67% | 1026.4 hPa | 0 mm | - | 15 W/m² | - |
| 1788503884 | 20° C | 67% | 1026.4 hPa | 0 mm | - | 15 W/m² | - |
| 1788502981 | 20° C | 67% | 1026.4 hPa | 0 mm | - | 15 W/m² | - |
| 1788501864 | 19.44° C | 69% | 1026.8 hPa | 0 mm | - | 4 W/m² | - |
| 1788500965 | 19.44° C | 69% | 1026.5 hPa | 0 mm | - | 0 W/m² | - |
| 1788500065 | 20° C | 66% | 1026.7 hPa | 0 mm | - | 0 W/m² | - |
| 1788498265 | 20° C | 65% | 1026.4 hPa | 0 mm | - | 0 W/m² | - |
| 1788497364 | 19.44° C | 70% | 1026.1 hPa | 0 mm | - | 0 W/m² | - |
| 1788496465 | 20° C | 67% | 1026.2 hPa | 0 mm | - | 0 W/m² | - |
| 1788495565 | 20° C | 69% | 1026.1 hPa | 0 mm | - | 0 W/m² | - |
| 1788494665 | 20° C | 67% | 1026 hPa | 0 mm | - | 0 W/m² | - |
| 1788493765 | 20.56° C | 65% | 1025.8 hPa | 0 mm | - | 0 W/m² | - |
| 1788492864 | 21.11° C | 62% | 1025.6 hPa | 0 mm | - | 0 W/m² | - |
| 1788491964 | 21.11° C | 63% | 1025.3 hPa | 0 mm | - | 0 W/m² | - |
| 1788491066 | 21.11° C | 60% | 1025.5 hPa | 0 mm | - | 0 W/m² | - |
| 1788490164 | 21.67° C | 58% | 1025.3 hPa | 0 mm | - | 0 W/m² | - |
| 1788489265 | 22.22° C | 58% | 1025.5 hPa | 0 mm | - | 0 W/m² | - |
| 1788487464 | 22.22° C | 59% | 1026.1 hPa | 0 mm | - | 0 W/m² | - |
| 1788486565 | 22.78° C | 59% | 1026 hPa | 0 mm | - | 0 W/m² | - |
| 1788485664 | 22.78° C | 59% | 1026.2 hPa | 0 mm | - | 0 W/m² | - |
* Rain latest hour (hover to see other rain measurements)
** Current wind speed in m/s (hover to see current wind gust speed)